CAPE
1 3 4 3 2 2 2 2 3 4 5 5 3 4 7 0 0 1 0 0 0 0 0 0 0 0 0 0 0 0 0 0 0 0 0 0 0 0 0 0 57 212 271 488 849 627 317 157 37 34 322 50 55 223
2 2 1 4 6 2 2 3 3 5 4 4 4 7 10 10 2 0 0 0 0 0 0 0 0 0 0 0 0 0 0 0 0 0 0 0 0 0 0 0 0 1 85 516 443 760 1010 564 414 9 10 296 203 92
0 0 2 3 4 1 1 1 1 5 5 3 4 7 7 6 2 0 0 0 0 0 0 0 0 0 0 0 0 0 0 0 0 0 0 0 0 0 0 0 13 293 75 28 443 127 63 239 135 211 65 96 20 3
0 0 1 3 6 3 1 1 2 4 8 6 5 6 8 8 1 0 2 0 0 1 0 0 0 0 0 0 0 0 0 0 0 0 0 0 0 0 0 0 0 0 0 105 696 778 584 206 203 245 183 1 50 82
0 0 3 3 2 1 3 1 4 7 9 10 6 6 7 7 3 0 2 3 6 0 0 0 0 0 0 0 0 0 0 0 0 0 0 0 0 0 0 0 0 0 0 0 53 0 56 239 141 76 164 207 201 320
0 0 0 2 4 3 5 3 4 6 10 10 5 7 8 5 3 1 6 16 0 9 3 0 0 0 0 0 0 0 0 0 0 0 0 0 0 0 0 0 0 0 0 0 0 0 0 10 24 45 427 339 336 605
0 0 0 3 3 4 8 6 5 5 9 5 6 8 9 15 2 2 3 8 0 4 11 2 0 0 0 0 5 22 17 24 3 0 0 0 0 15 23 3 0 0 0 0 0 0 0 0 9 40 19 170 163 501
2 0 2 3 6 7 9 8 3 5 4 5 7 4 8 9 0 0 3 0 0 12 17 23 0 0 12 6 0 1 0 0 0 6 53 120 87 107 23 0 0 0 0 0 0 0 0 1 121 404 80 0 0 0
7 3 8 5 9 6 7 3 3 5 4 1 3 1 1 5 6 9 0 0 7 12 24 13 1 0 0 2 13 7 0 0 0 0 27 50 42 146 111 279 229 83 0 0 0 0 0 0 117 641 740 1 0 19
7 7 8 9 5 8 5 0 5 3 0 0 0 11 7 23 0 0 16 55 24 32 21 15 1 2 6 19 21 0 13 12 8 8 33 97 199 203 155 240 410 308 151 0 0 0 0 0 0 296 736 1034 1366 1198
6 10 11 8 11 13 3 6 7 0 0 4 20 12 24 7 5 28 39 42 27 12 9 4 0 20 43 42 31 5 9 9 47 12 125 8 16 2 8 2 26 43 8 64 23 0 0 0 0 261 646 1046 1296 1494
10 13 7 18 27 20 16 24 6 0 39 6 0 0 2 15 29 28 33 30 47 18 15 5 37 43 28 69 42 10 7 20 20 44 3 28 4 0 8 9 4 6 9 2 8 0 0 0 0 325 596 1125 269 249
16 12 19 24 21 25 36 27 4 0 0 15 21 15 20 23 60 23 26 33 58 30 59 25 15 37 93 21 11 16 21 17 20 16 25 7 8 12 13 9 0 0 9 9 3 0 0 0 2 111 466 211 368 40
15 15 24 21 25 44 39 27 16 7 2 20 12 55 16 14 14 24 10 19 35 38 39 35 32 32 171 47 14 16 13 57 49 69 28 34 35 31 5 6 12 4 11 6 7 0 0 0 11 492 522 346 8 139
11 20 19 23 32 37 36 31 21 13 40 37 11 7 0 0 20 35 33 32 44 50 58 29 27 61 106 8 22 14 38 73 80 73 149 141 38 46 3 2 18 7 13 9 10 3 0 4 456 302 84 145 119 5
19 24 12 16 45 36 52 40 18 41 60 31 12 1 0 7 23 35 36 59 56 51 36 36 57 115 72 23 51 73 27 58 158 225 141 195 82 59 24 13 10 15 12 13 5 0 0 50 238 602 116 43 17 91
18 10 16 14 50 54 31 34 59 48 22 7 0 0 0 0 1 3 26 34 41 39 17 39 56 67 198 123 76 150 95 133 159 185 310 116 50 36 22 2 7 24 19 8 2 0 14 23 133 66 176 66 153 117
9 9 31 19 5 3 25 7 43 26 9 3 0 0 15 28 33 37 43 50 40 29 34 25 31 25 37 23 106 226 155 272 256 286 169 168 69 72 51 41 23 7 8 4 2 7 202 639 294 335 127 50 3 5
17 34 24 1 9 34 23 24 35 17 7 1 12 23 29 27 37 40 40 28 41 41 27 38 28 17 31 117 264 136 37 173 198 143 169 88 74 73 65 34 6 5 10 6 8 85 306 822 236 257 15 24 20 3
25 27 19 11 2 60 36 30 71 14 2 16 25 24 31 19 45 38 23 54 71 28 22 8 13 20 37 47 62 51 271 246 237 219 208 91 94 53 36 18 4 5 8 6 8 47 356 483 110 49 0 0 9 9
27 8 10 13 8 17 46 21 20 14 14 14 18 34 25 18 24 7 12 30 21 7 1 4 14 26 59 57 224 331 204 400 356 267 159 58 35 17 36 38 6 11 8 6 95 57 21 73 511 496 216 5 17 217
78 18 35 23 33 42 29 18 12 10 6 18 25 29 11 18 21 54 62 58 86 131 86 128 84 59 107 235 135 359 628 546 341 164 92 73 14 22 22 15 13 10 10 5 24 393 295 751 55 2 51 202 367 464
16 32 57 37 29 22 0 28 14 9 10 8 21 2 1 23 107 36 36 54 49 104 7 9 57 195 124 94 395 317 353 278 107 82 125 129 83 24 21 8 7 9 6 4 13 154 214 472 5 3 0 0 425 655
0 43 41 41 28 6 21 11 7 9 6 4 2 2 13 44 26 19 10 6 18 7 21 21 79 142 187 292 491 279 295 70 114 178 116 110 21 30 8 4 5 6 7 5 33 680 1098 1535 1152 24 69 183 946 1578
0 0 13 0 14 14 5 7 12 10 3 4 11 30 79 61 21 5 13 8 30 199 347 273 311 332 509 554 597 376 114 79 124 23 113 56 34 25 3 2 1 1 3 7 15 589 1288 859 304 1320 484 18 666 1964
0 0 0 15 19 19 27 22 10 6 10 3 1 127 44 91 17 23 30 320 514 511 513 652 605 541 571 585 484 256 99 107 142 27 91 33 46 39 10 3 1 0 2 9 8 498 1059 1468 1395 1374 1156 577 824 1200
0 13 9 5 32 24 19 11 22 13 4 23 25 114 89 57 91 250 408 540 731 459 134 354 895 678 640 712 629 19 2 1 45 57 34 73 123 11 8 5 3 1 3 4 4 6 268 833 982 581 436 326 266 215
7 22 28 33 24 27 24 15 11 14 25 45 167 166 152 113 254 153 189 417 262 361 491 837 591 192 661 495 514 388 123 70 157 306 201 140 133 12 10 4 2 1 1 0 0 0 0 4 0 0 5 2 2 0
15 32 36 35 30 20 22 25 157 229 142 148 237 199 198 108 86 89 145 177 156 92 101 77 412 695 557 305 207 54 153 91 83 25 29 53 30 12 6 4 3 3 10 4 0 0 0 0 0 1 0 1 1 0
28 52 30 15 9 29 128 128 163 151 174 198 153 133 100 84 93 165 128 155 124 57 131 120 66 292 294 369 304 330 313 152 14 31 19 24 32 10 6 4 3 2 16 22 13 20 2 0 0 0 0 0 0 0
41 45 58 120 156 187 192 146 131 165 118 78 50 61 43 72 164 305 190 181 144 116 122 137 46 53 157 54 178 163 19 0 21 0 0 0 11 3 4 6 3 2 1 26 40 17 1 0 0 0 0 0 0 0
46 45 70 96 98 88 95 88 102 92 82 60 64 45 122 213 271 304 227 11 10 29 6 12 19 19 28 16 27 3 0 0 7 0 0 0 0 0 0 0 0 0 5 14 48 43 25 0 0 0 1 0 0 0
65 74 60 67 76 67 86 52 44 85 115 138 167 371 465 354 260 553 232 106 18 21 57 43 24 49 40 29 20 8 10 5 0 0 0 0 0 0 0 0 0 4 1 1 27 54 73 53 41 50 38 13 5 0
CIN
-0 -0 -0 -0 -0 -0 -0 -0 -0 -0 -0 -0 -0 -0 -0 -0 -0 -0 -0 -0 -0 -0 -0 -0 -0 -0 -0 -0 -0 -0 -0 -0 -0 -0 -0 -0 -0 -0 -0 -0 -0 -2 -165 -27 -1 -0 -1 -6 -17 -68 -37 -262 -137 -83
-0 -0 -0 -0 -0 -0 -0 -0 -0 -0 -0 -0 -0 -0 -0 -0 -0 -0 -0 -0 -0 -0 -0 -0 -0 -0 -0 -0 -0 -0 -0 -0 -0 -0 -0 -0 -0 -0 -0 -0 -0 -3 -32 -0 -0 -2 -6 -11 -14 -19 -4 -4 -360 -346
-0 -0 -0 -0 -0 -0 -0 -0 -0 -0 -0 -0 -0 -0 -0 -0 -0 -0 -0 -0 -0 -0 -0 -0 -0 -0 -0 -0 -0 -0 -0 -0 -0 -0 -0 -0 -0 -0 -0 -0 -85 -21 -19 -40 -28 -69 -186 -66 -40 -23 -41 -177 -235 -144
-0 -0 -0 -0 -0 -0 -0 -0 -0 -0 -0 -0 -0 -0 -0 -0 -0 -0 -0 -0 -0 -0 -0 -0 -0 -0 -0 -0 -0 -0 -0 -0 -0 -0 -0 -0 -0 -0 -0 -0 -0 -0 -0 -77 -12 -8 -148 -115 -77 -0 -52 -9 -355 -119
-0 -0 -0 -0 -0 -0 -0 -0 -0 -0 -0 -0 -0 -0 -0 -0 -0 -0 -0 -2 -0 -0 -0 -0 -0 -0 -0 -0 -0 -0 -0 -0 -0 -0 -0 -0 -0 -0 -0 -0 -0 -0 -0 -0 -34 -0 -36 -190 -241 -390 -13 -46 -172 -67
-0 -0 -0 -0 -0 -0 -0 -0 -0 -0 -0 -0 -0 -0 -0 -0 -0 -0 -0 -0 -3 -0 -0 -0 -0 -0 -0 -0 -0 -0 -0 -0 -0 -0 -0 -0 -0 -0 -0 -0 -0 -0 -0 -0 -0 -0 -0 -499 -510 -353 -18 -6 -16 -4
-0 -0 -0 -0 -0 -0 -0 -0 -0 -0 -0 -0 -0 -0 -0 -0 -0 -0 -0 -0 -0 -0 -0 -0 -0 -0 -0 -0 -0 -0 -1 -0 -0 -0 -0 -0 -0 -0 -0 -0 -0 -0 -0 -0 -0 -0 -0 -0 -461 -382 -392 -496 -533 -33
-0 -0 -0 -0 -0 -0 -0 -0 -0 -0 -0 -0 -0 -0 -0 -0 -0 -0 -0 -0 -0 -0 -0 -0 -0 -0 -0 -0 -0 -0 -0 -0 -0 -26 -38 -11 -14 -5 -0 -0 -0 -0 -0 -0 -0 -0 -0 -106 -157 -138 -40 -0 -0 -0
-0 -0 -0 -0 -0 -0 -0 -0 -0 -0 -0 -0 -0 -0 -0 -0 -0 -9 -0 -0 -0 -0 -0 -0 -0 -0 -0 -0 -0 -0 -0 -0 -0 -0 -19 -0 -3 -0 -8 -0 -0 -0 -0 -0 -0 -0 -0 -0 -163 -104 -120 -12 -99 -707
-0 -0 -0 -0 -0 -0 -0 -0 -0 -0 -0 -0 -0 -0 -1 -1 -1 -0 -0 -0 -0 -0 -1 -0 -0 -0 -0 -0 -0 -0 -0 -0 -0 -66 -2 -1 -0 -0 -6 -2 -3 -2 -0 -0 -0 -0 -0 -0 -0 -195 -150 -126 -55 -1
-0 -0 -0 -0 -0 -0 -0 -0 -0 -0 -0 -0 -0 -0 -1 -46 -0 -0 -0 -0 -0 -0 -0 -0 -0 -0 -0 -0 -0 -1 -0 -0 -0 -0 -2 -0 -0 -0 -0 -0 -79 -106 -96 -41 -4 -0 -0 -0 -0 -201 -207 -185 -170 -16
-0 -0 -0 -0 -0 -0 -0 -0 -0 -0 -0 -0 -0 -0 -0 -0 -0 -0 -0 -0 -0 -0 -0 -0 -2 -0 -0 -9 -0 -0 -0 -0 -0 -0 -0 -0 -0 -0 -0 -0 -0 -0 -0 -0 -35 -0 -0 -0 -0 -140 -148 -150 -508 -534
-0 -0 -0 -0 -0 -0 -0 -0 -0 -0 -0 -0 -0 -0 -0 -0 -0 -0 -0 -0 -0 -0 -0 -0 -0 -0 -8 -16 -0 -0 -0 -0 -0 -5 -2 -0 -6 -0 -0 -0 -0 -0 -0 -0 -0 -0 -0 -0 -14 -67 -74 -344 -271 -849
-0 -0 -0 -0 -0 -0 -0 -0 -0 -1 -3 -0 -0 -0 -0 -0 -0 -0 -0 -0 -0 -0 -0 -0 -0 -0 -3 -0 -0 -0 -0 -0 -0 -0 -1 -1 -4 -0 -10 -0 -0 -0 -0 -0 -0 -0 -0 -0 -94 -24 -156 -221 -306 -177
-0 -0 -1 -0 -0 -0 -0 -0 -0 -1 -0 -0 -0 -0 -0 -0 -0 -0 -0 -0 -0 -0 -0 -0 -0 -0 -2 -2 -0 -0 -0 -0 -0 -0 -2 -6 -5 -0 -14 -0 -0 -0 -0 -0 -0 -0 -0 -141 -2 -104 -348 -370 -377 -47
-0 -0 -0 -3 -0 -0 -0 -0 -0 -0 -0 -0 -0 -0 -0 -0 -0 -0 -0 -0 -0 -0 -0 -0 -0 -0 -0 -0 -0 -0 -0 -0 -0 -0 -16 -5 -0 -0 -2 -1 -0 -0 -0 -0 -0 -0 -0 -167 -4 -33 -182 -275 -291 -376
-0 -0 -18 -26 -2 -2 -2 -0 -0 -0 -0 -0 -0 -0 -0 -0 -0 -0 -0 -0 -1 -0 -0 -0 -0 -0 -0 -0 -0 -0 -0 -0 -0 -0 -22 -23 -25 -5 -8 -11 -0 -0 -0 -0 -0 -0 -157 -94 -51 -88 -43 -280 -348 -435
-0 -5 -27 -20 -5 -5 -0 -9 -0 -0 -0 -0 -0 -0 -0 -0 -1 -0 -0 -0 -0 -0 -0 -0 -0 -0 -0 -0 -0 -0 -3 -0 -0 -0 -8 -15 -13 -2 -2 -0 -0 -0 -0 -0 -0 -82 -52 -11 -45 -18 -218 -351 -474 -482
-3 -3 -21 -14 -4 -2 -1 -0 -0 -0 -0 -0 -0 -0 -0 -1 -0 -0 -0 -2 -2 -3 -0 -0 -0 -0 -0 -0 -0 -0 -3 -0 -0 -0 -1 -20 -11 -0 -0 -1 -10 -0 -0 -0 -82 -110 -58 -6 -99 -63 -393 -209 -391 -270
-13 -22 -15 -30 -14 -0 -0 -0 -0 -0 -0 -0 -0 -0 -1 -0 -0 -0 -4 -0 -0 -1 -3 -0 -0 -0 -0 -1 -3 -24 -0 -0 -0 -0 -3 -4 -1 -0 -1 -7 -0 -0 -0 -0 -124 -155 -28 -55 -137 -295 -0 -0 -174 -164
-4 -9 -26 -10 -0 -0 -0 -0 -0 -0 -0 -0 -0 -0 -0 -1 -0 -9 -10 -1 -0 -1 -30 -34 -0 -0 -0 -39 -1 -0 -0 -2 -0 -0 -1 -0 -1 -1 -0 -0 -0 -0 -0 -0 -48 -27 -141 -63 -39 -163 -218 -407 -492 -245
-1 -26 -0 -0 -0 -0 -0 -0 -0 -0 -0 -0 -0 -0 -0 -0 -0 -2 -6 -1 -0 -4 -16 -7 -0 -12 -4 -3 -9 -0 -0 -0 -0 -11 -6 -1 -3 -0 -1 -4 -0 -0 -0 -0 -174 -52 -70 -42 -244 -142 -533 -413 -414 -335
-6 -0 -1 -0 -0 -3 -0 -0 -1 -0 -0 -0 -0 -2 -10 -0 -0 -3 -0 -0 -0 -0 -1 -0 -0 -0 -3 -13 -0 -0 -0 -0 -0 -2 -6 -0 -0 -1 -3 -0 -0 -0 -0 -0 -94 -178 -336 -267 -157 -147 -0 -0 -304 -204
-0 -0 -0 -0 -0 -1 -0 -0 -0 -0 -0 -2 -0 -3 -0 -5 -2 -0 -0 -0 -0 -0 -0 -2 -0 -0 -0 -0 -0 -0 -0 -0 -0 -3 -30 -0 -0 -0 -4 -0 -0 -0 -0 -0 -172 -89 -67 -108 -190 -512 -290 -195 -54 -17
-0 -2 -3 -0 -0 -0 -0 -0 -0 -0 -2 -0 -0 -0 -0 -3 -0 -0 -0 -1 -2 -7 -2 -1 -5 -0 -0 -0 -0 -1 -0 -0 -0 -0 -0 -0 -0 -1 -1 -1 -1 -0 -0 -0 -211 -50 -21 -41 -188 -0 -139 -293 -151 -18
-0 -0 -0 -0 -0 -0 -0 -0 -0 -0 -0 -0 -8 -0 -0 -0 -7 -1 -0 -0 -0 -0 -0 -0 -0 -0 -0 -0 -0 -0 -0 -0 -0 -0 -3 -0 -0 -0 -12 -0 -0 -0 -0 -0 -6 -46 -63 -17 -86 -121 -122 -174 -96 -115
-0 -0 -0 -0 -0 -1 -0 -1 -0 -0 -2 -0 -3 -0 -0 -0 -0 -1 -1 -4 -6 -13 -13 -0 -2 -0 -0 -0 -0 -22 -16 -4 -1 -0 -1 -0 -0 -6 -2 -0 -0 -0 -0 -0 -0 -70 -150 -103 -78 -138 -176 -215 -201 -210
-0 -0 -0 -0 -0 -0 -0 -1 -1 -0 -0 -0 -0 -0 -0 -0 -0 -0 -29 -19 -0 -6 -0 -5 -8 -13 -0 -2 -0 -0 -8 -15 -4 -3 -3 -1 -0 -17 -20 -0 -0 -0 -0 -0 -0 -0 -0 -22 -0 -0 -34 -37 -36 -0
-0 -0 -0 -0 -0 -0 -0 -0 -0 -0 -3 -0 -0 -0 -1 -0 -0 -3 -0 -3 -2 -7 -14 -10 -20 -2 -0 -6 -12 -9 -6 -0 -0 -0 -0 -0 -0 -8 -0 -0 -0 -0 -0 -0 -0 -0 -0 -0 -0 -0 -0 -0 -0 -0
-0 -0 -0 -2 -5 -1 -0 -0 -0 -0 -0 -0 -0 -0 -0 -4 -0 -0 -3 -9 -4 -33 -1 -3 -31 -14 -0 -2 -0 -0 -1 -0 -1 -0 -0 -0 -0 -0 -0 -0 -0 -0 -8 -1 -1 -1 -5 -0 -0 -0 -0 -0 -0 -0
-1 -0 -0 -0 -0 -0 -0 -0 -0 -0 -0 -0 -0 -0 -0 -2 -0 -0 -2 -0 -0 -12 -0 -0 -7 -9 -6 -22 -1 -0 -1 -0 -0 -0 -0 -0 -0 -0 -0 -0 -0 -0 -0 -0 -0 -1 -0 -0 -0 -0 -0 -0 -0 -0
-0 -0 -0 -0 -0 -0 -0 -0 -0 -0 -0 -0 -0 -1 -0 -0 -0 -0 -0 -10 -13 -7 -24 -16 -0 -2 -8 -24 -2 -9 -0 -0 -0 -0 -0 -0 -0 -0 -0 -0 -0 -0 -47 -10 -6 -2 -4 -0 -0 -0 -2 -0 -0 -0
-0 -0 -0 -0 -0 -0 -0 -0 -2 -2 -2 -2 -0 -0 -0 -1 -1 -1 -9 -14 -1 -0 -3 -2 -0 -0 -1 -0 -2 -8 -15 -10 -0 -0 -0 -0 -0 -0 -0 -0 -0 -0 -22 -0 -1 -9 -2 -6 -8 -5 -4 -7 -11 -0
Wind_Speed
11 10 11 10 10 11 11 11 13 15 15 16 16 16 17 19 19 14 9 8 7 6 16 15 13 13 14 11 11 15 13 10 9 11 11 14 16 17 22 22 22 21 7 13 19 16 19 12 13 12 15 10 12 15
11 11 10 11 10 10 10 11 12 13 13 14 14 15 14 14 15 15 8 9 7 8 13 25 25 23 20 18 13 9 12 16 7 8 9 8 15 13 19 16 20 21 20 11 15 16 11 17 19 16 14 10 7 3
12 11 11 11 11 11 10 10 11 13 13 12 13 13 13 13 14 11 9 10 9 9 13 6 5 3 11 10 8 7 8 14 14 12 10 10 15 13 13 14 19 20 18 14 9 16 15 25 6 20 0 10 7 5
14 12 11 11 12 11 11 11 11 12 13 13 12 13 13 12 13 12 8 10 7 7 7 3 13 18 21 17 19 17 15 15 15 11 11 12 14 11 15 19 20 15 20 19 15 3 10 25 20 19 6 13 14 19
15 13 12 12 12 12 11 11 11 12 13 14 13 13 12 12 13 11 10 9 8 5 8 14 23 15 11 11 13 12 11 15 12 12 12 14 14 15 14 17 18 17 18 14 12 14 10 16 20 36 18 13 26 26
15 14 13 12 12 12 13 12 12 11 12 13 13 13 13 12 12 9 2 6 9 6 7 8 12 9 7 7 9 12 12 12 10 11 10 12 19 17 15 17 22 26 24 25 14 21 11 22 27 37 27 14 16 12
16 14 13 12 11 13 13 13 12 12 12 13 13 13 12 9 8 7 5 4 8 8 4 7 7 7 11 15 10 7 11 8 10 11 13 14 15 14 15 18 18 26 24 25 24 24 23 22 25 36 15 14 18 10
15 13 13 12 12 13 13 12 12 12 14 14 13 13 11 9 11 8 2 9 7 4 3 4 7 10 7 8 7 10 11 13 13 14 14 14 13 12 20 24 21 25 27 21 20 19 20 20 27 35 4 13 17 28
16 13 14 12 13 12 11 10 12 14 14 15 14 15 7 6 3 3 5 4 5 2 2 4 5 7 8 8 10 8 6 9 8 14 15 14 14 16 18 18 20 21 24 25 22 26 23 27 29 23 27 26 32 32
17 15 13 13 12 11 9 10 12 14 15 13 9 6 3 3 16 12 3 3 2 1 2 5 9 11 10 9 5 5 4 6 9 7 11 10 15 21 16 20 17 20 22 23 20 19 20 21 22 26 26 28 19 15
18 16 13 12 11 10 9 10 11 12 14 5 5 4 6 10 5 3 4 5 5 4 5 6 9 10 6 7 1 2 4 7 5 2 7 4 4 13 23 21 21 24 25 26 22 20 21 20 22 24 21 25 19 15
18 16 13 12 10 10 10 10 8 5 3 5 5 7 4 3 2 5 5 4 7 5 7 7 6 6 2 4 3 3 4 4 8 5 3 4 4 7 18 22 23 22 24 23 23 22 20 22 24 25 17 18 21 26
17 14 13 11 10 11 11 10 9 9 10 2 4 3 4 6 4 6 5 5 5 4 6 6 10 5 5 3 2 3 6 7 5 3 4 3 3 7 15 18 20 20 22 22 22 20 22 23 23 24 13 8 14 32
17 14 13 11 11 11 10 9 9 6 5 3 3 3 6 7 7 7 9 5 3 5 9 9 9 6 3 3 3 5 6 5 4 4 4 2 5 9 13 14 15 19 20 18 19 19 20 23 23 11 7 1 15 18
16 14 12 11 12 11 11 9 8 6 4 4 5 6 10 11 9 8 8 7 8 9 9 7 9 3 2 3 4 5 6 6 5 4 8 7 6 9 14 15 15 16 15 15 14 16 18 17 10 4 6 3 18 9
15 10 8 12 14 14 10 8 5 4 4 5 7 9 10 9 8 6 3 6 5 4 5 4 4 4 6 4 6 7 5 4 6 8 9 5 8 12 13 15 17 15 13 13 14 16 16 13 14 3 7 5 6 5
15 5 15 19 13 12 14 7 5 5 5 5 8 10 11 10 8 7 6 6 5 4 4 3 6 4 4 5 5 2 4 11 11 10 5 4 6 10 14 17 16 14 12 12 14 16 16 14 9 4 9 5 2 5
6 8 18 19 14 9 7 5 4 5 8 8 10 11 10 8 7 6 6 5 6 4 3 6 6 12 9 8 11 10 11 13 11 10 11 9 10 10 13 16 15 14 13 13 15 15 13 11 10 8 6 3 1 6
3 10 19 19 11 3 5 5 4 5 8 9 9 10 8 6 6 7 6 4 4 2 3 4 7 8 10 7 10 12 13 12 12 12 12 14 11 12 14 15 16 15 11 14 15 9 9 12 12 11 8 2 3 10
8 16 15 14 7 3 5 4 4 5 7 5 6 8 4 7 8 5 5 6 5 3 4 6 10 13 11 10 7 8 10 12 11 13 13 10 8 12 14 14 13 14 10 12 15 15 10 5 10 11 13 17 16 15
10 7 10 7 6 4 4 2 4 6 7 7 7 3 6 5 4 6 7 5 7 5 6 9 11 12 14 12 13 11 11 11 11 10 12 12 9 10 12 10 12 8 6 8 8 8 10 9 7 8 10 12 11 6
6 17 5 6 3 3 5 6 4 3 4 8 8 5 5 8 8 2 6 8 8 6 2 6 9 8 10 14 10 12 11 12 13 9 9 9 8 11 11 11 10 8 7 7 8 9 10 5 11 6 6 10 8 9
14 7 3 6 4 3 7 5 5 4 4 4 3 2 5 4 2 3 3 3 3 2 6 9 11 12 14 14 11 13 11 13 10 9 9 8 8 9 10 11 9 9 7 6 7 9 7 15 18 13 6 8 11 16
3 5 5 5 6 5 4 4 4 4 4 5 3 4 4 2 3 2 2 3 5 6 8 8 9 9 10 9 7 10 9 8 9 9 6 9 9 11 11 11 9 9 7 8 9 8 12 13 9 23 25 13 15 18
3 3 5 3 5 6 6 6 6 4 4 4 7 5 1 1 2 2 2 4 4 4 6 7 7 8 9 8 7 8 10 7 7 9 8 6 8 10 12 12 11 8 7 8 8 10 8 5 17 24 32 27 23 8
3 7 7 8 7 7 4 1 6 6 7 4 5 4 1 2 2 4 2 3 4 5 6 6 7 8 7 7 8 7 8 8 6 6 6 7 8 9 11 12 12 12 12 9 9 7 4 9 8 23 18 16 17 20
4 7 7 7 3 2 4 4 4 3 5 2 1 3 2 3 2 2 2 2 2 3 5 5 5 6 7 7 6 3 4 7 8 7 7 4 7 7 7 10 12 9 10 13 11 8 6 14 16 17 17 15 17 17
8 3 6 7 7 7 6 1 3 3 3 2 3 1 3 2 3 2 1 4 2 4 5 6 4 5 5 5 4 6 5 8 9 6 1 1 5 6 10 9 9 15 9 12 11 8 11 13 16 20 21 19 17 16
7 6 4 4 3 2 3 5 5 4 3 1 2 2 3 3 1 1 3 3 6 5 5 7 4 1 4 4 3 5 5 8 12 13 14 9 9 8 9 9 9 8 7 11 19 16 17 13 18 20 23 19 18 17
7 6 5 5 7 7 6 7 3 6 6 3 6 6 7 5 1 1 2 7 6 7 6 7 5 5 7 4 4 5 4 8 10 9 7 9 8 7 9 10 10 9 7 7 9 11 15 12 16 17 18 16 15 15
4 6 6 6 8 9 10 7 7 8 7 7 6 7 5 4 4 7 5 6 6 5 6 5 5 3 5 6 4 6 8 6 9 11 6 4 7 7 9 11 11 9 9 7 8 9 13 13 14 16 17 18 18 16
5 7 7 6 7 6 9 7 6 6 7 6 4 6 5 4 4 3 3 5 2 2 2 6 3 5 5 2 2 6 5 1 4 5 5 4 4 5 5 7 9 10 11 11 8 7 13 14 11 11 12 15 14 14
7 5 5 6 5 4 4 4 4 5 5 6 5 5 6 4 3 2 4 2 3 3 2 4 3 4 2 2 3 1 3 4 5 4 4 5 6 8 6 6 6 7 10 8 7 6 8 11 10 10 10 13 12 12
Wind_Direction
268 276 282 288 297 309 319 325 329 334 340 346 348 351 355 352 349 346 303 34 344 307 291 287 331 318 320 310 304 323 328 27 310 261 269 270 262 257 260 260 263 262 156 280 279 250 255 263 182 169 210 198 204 253
257 270 275 285 289 296 308 314 320 324 334 337 339 342 345 345 345 338 303 350 337 277 294 308 287 268 262 270 278 277 282 311 315 327 329 328 323 311 303 282 260 257 268 247 246 282 270 244 258 272 280 203 204 112
248 257 268 277 281 289 300 305 313 319 324 326 328 332 336 337 335 337 308 294 305 298 300 295 359 75 204 212 220 264 259 264 275 282 310 295 278 306 294 292 292 303 282 304 225 265 289 304 313 296 135 143 116 340
238 249 260 267 274 282 292 298 305 310 314 315 319 323 326 325 320 318 300 304 299 293 290 273 347 328 304 284 275 268 268 270 276 278 275 272 276 283 278 293 297 296 329 314 318 315 290 282 296 254 152 99 70 189
227 237 251 264 270 276 280 288 295 305 309 308 312 316 318 317 314 298 273 271 302 289 305 307 297 292 285 302 287 275 257 263 267 268 265 262 263 267 273 278 274 286 292 301 313 4 325 288 302 316 278 187 172 221
218 226 241 253 261 274 276 282 291 301 301 303 308 308 310 313 321 292 163 61 2 2 319 305 350 292 287 273 269 279 265 252 246 262 261 267 268 268 269 268 281 286 289 291 308 343 321 294 304 305 295 263 284 178
213 221 236 245 257 263 271 281 291 296 297 296 297 295 296 299 294 289 350 352 350 311 284 295 293 333 280 268 253 289 318 265 239 245 250 259 259 268 272 272 279 277 279 284 298 307 314 321 297 298 332 13 359 246
212 218 235 243 249 259 270 282 291 293 292 290 287 283 283 280 268 258 175 214 228 285 266 285 270 263 25 2 337 337 317 307 284 282 272 263 260 247 248 247 257 267 280 286 295 276 277 289 286 280 44 65 7 288
204 217 231 239 248 258 270 281 288 288 287 285 288 283 272 217 237 100 101 127 184 309 242 230 273 319 0 345 339 330 303 289 269 262 261 254 258 249 265 272 271 259 262 275 285 292 295 290 300 313 302 166 185 240
203 212 224 231 246 257 268 277 283 286 283 290 272 205 185 35 119 146 167 179 150 225 261 267 278 274 302 339 352 341 332 287 302 298 302 252 248 250 272 278 298 291 275 269 270 263 275 281 290 304 304 313 315 174
192 204 209 228 241 248 260 271 281 297 272 222 252 47 94 159 224 198 227 228 150 217 205 238 247 281 336 317 339 261 306 294 283 16 339 322 4 341 337 329 327 324 320 316 291 277 283 288 287 292 303 305 308 248
193 194 198 222 235 246 252 258 266 260 355 343 291 264 249 228 223 239 220 208 199 236 182 241 277 291 268 156 224 168 250 252 256 349 302 238 197 356 322 319 317 317 316 311 306 301 295 291 294 300 288 311 327 329
188 188 202 211 223 238 242 246 244 275 285 260 245 238 219 203 238 222 225 200 206 208 192 262 295 291 129 69 198 243 240 243 310 242 259 273 329 328 318 311 311 308 308 309 301 296 290 290 296 303 307 281 332 343
177 186 203 206 220 231 232 233 233 243 251 225 243 245 231 196 236 185 237 305 260 277 283 275 293 285 85 178 233 254 236 253 266 245 247 282 286 297 315 303 298 299 300 301 297 294 281 278 295 301 286 283 77 323
174 190 198 212 219 221 219 215 218 225 258 238 210 235 225 246 233 204 202 229 243 256 274 309 296 328 138 223 220 251 244 242 236 284 303 298 289 308 317 309 299 294 301 304 299 284 273 285 288 310 295 169 96 265
171 178 211 207 207 207 198 191 191 237 239 231 226 249 266 269 262 253 241 229 253 305 337 342 305 253 210 218 218 229 246 267 294 300 287 308 320 324 315 306 303 297 291 289 285 273 279 272 272 226 257 186 163 302
167 209 190 185 189 176 182 203 194 231 244 234 237 224 253 273 275 278 296 304 313 304 294 293 255 257 269 227 238 260 268 286 308 318 359 0 334 316 299 295 295 290 291 286 277 266 263 269 141 139 222 243 285 349
199 176 148 151 154 147 171 216 234 231 239 243 256 257 255 265 283 291 302 324 314 293 251 243 264 274 276 283 296 306 318 308 312 323 331 329 312 290 292 293 293 291 290 284 262 253 258 255 170 185 182 140 314 325
146 157 158 167 181 172 168 204 238 258 246 261 250 256 263 293 295 286 284 302 275 304 288 232 236 252 261 277 287 304 297 302 330 322 320 323 328 305 295 295 290 289 277 273 257 242 245 239 152 169 141 297 287 247
159 145 164 175 207 211 216 197 202 253 271 254 263 263 290 273 274 261 265 261 218 185 201 227 246 264 280 302 298 281 306 330 320 311 310 321 318 317 306 303 299 297 283 269 239 225 232 229 166 155 180 192 207 225
166 135 132 183 204 232 286 236 232 252 283 285 266 303 280 315 294 272 266 219 225 217 228 235 258 273 301 320 307 300 326 312 304 304 309 311 322 310 304 297 294 291 285 273 255 230 223 248 137 169 188 210 218 221
125 175 150 184 226 234 253 226 235 295 264 275 289 275 299 273 269 339 310 272 263 280 322 302 284 286 292 282 296 316 318 309 301 299 310 311 316 309 312 313 315 317 309 320 307 277 256 308 156 196 210 232 216 235
154 175 175 189 207 207 258 222 220 225 265 272 304 305 258 263 59 321 270 315 287 304 313 287 284 285 286 304 315 305 309 312 322 333 317 319 312 302 308 320 321 313 304 297 285 274 275 271 140 159 281 259 229 225
154 180 188 189 195 244 219 208 222 240 229 245 249 256 276 308 346 328 266 274 286 309 289 295 304 318 307 301 303 307 317 338 334 314 332 328 321 319 324 323 331 320 308 287 275 283 268 267 288 163 171 205 251 193
108 250 128 222 218 237 230 205 195 218 243 241 269 268 193 216 297 278 314 285 335 320 339 332 313 305 304 311 309 307 330 9 335 325 325 329 327 322 325 335 338 326 320 327 314 304 323 356 297 157 137 146 213 177
202 202 189 207 194 214 228 242 199 229 255 247 235 252 191 235 240 250 219 312 339 330 323 323 324 321 326 340 332 349 338 353 329 332 320 343 341 339 333 336 336 332 345 339 328 338 341 108 54 72 85 100 104 98
231 221 187 223 241 233 255 270 238 234 261 255 198 261 274 263 299 296 146 171 231 252 304 355 318 334 333 339 347 349 330 323 321 290 296 311 343 342 330 329 331 329 325 339 0 354 35 91 97 99 95 90 89 96
253 253 207 216 208 196 233 329 298 257 256 224 242 261 343 289 246 347 159 243 339 298 307 261 91 316 342 12 10 7 333 318 309 326 55 35 15 351 354 345 340 344 5 13 2 38 53 75 87 87 91 94 98 96
240 229 179 228 229 257 256 211 241 231 223 238 309 275 261 280 80 316 293 35 44 17 354 343 339 105 73 59 47 39 345 358 15 30 23 17 8 1 355 360 360 359 11 57 35 43 52 63 86 90 86 82 77 72
222 210 166 169 214 226 227 231 222 252 257 231 250 246 261 276 240 239 357 59 22 354 352 16 357 14 29 13 3 50 35 28 36 26 0 16 5 4 0 17 9 8 13 46 52 41 51 68 67 74 81 82 80 76
216 179 177 211 224 227 242 242 226 248 252 255 266 270 274 310 36 35 36 29 29 25 4 11 15 7 37 347 26 43 50 26 45 56 29 359 27 12 15 15 5 16 30 36 57 59 68 60 64 74 79 84 88 90
179 194 221 227 248 202 222 228 275 280 285 296 291 299 314 335 328 326 38 74 5 306 311 287 324 60 96 359 355 85 74 41 70 90 36 10 13 10 14 16 9 15 21 29 38 62 79 81 84 81 88 97 98 100
208 228 264 294 313 342 344 351 322 317 308 292 287 303 309 269 247 180 73 49 313 346 148 269 310 105 132 322 104 81 192 86 76 95 122 98 58 30 29 27 7 1 4 18 48 59 99 117 112 122 119 112 110 114